"startDT [UTC]","vpos","CH4 [ppm]","stdev(CH4) [ppm]","CO2 [ppm]","stdev(CO2) [ppm]","H2O_reported [%]","stdev(H2O_reported)","CavityPressure [torr]","CavityTemp [C]","OutletValve","CH4_dry [ppm]","CO2_dry [ppm]","DasTemp [C]","EtalonTemp [C]","WarmBoxTemp [C]","MPVPosition","T_ECpre [C]","T_EC1 [C]","T_EC2 [C]","p_inlet [hPa]","p_in [hPa]","p_out [hPa]","T_inlet [C]","RH_inlet [%]","dwpt_inlet [C]","T_vent [C]","RH_vent [%]","dwpt_vent [C]","flow_vent [l min-1]","flow_inlet [l min-1]","dwpt_sample [C]","T_room [C]"
2016-04-18 00:00:00,3.0,1.88348,0.01919,399.395,3.282,0.0292,0.0390,140.000,45.000,31158.73895,1.88606,399.731,30.188,45.072,44.999,0.00,0.08,-272.75,-272.81,-1,511,-925,16.1,4.9,-23.8,15.8,5.1,-23.5,5.73,1.90,-16.3,22.1
2016-04-18 00:01:00,3.0,1.87665,0.00041,397.252,0.047,0.0059,0.0020,140.002,45.000,31160.77102,1.87672,397.280,30.186,45.072,44.999,0.00,0.09,-272.75,-272.81,-1,511,-925,16.1,4.8,-23.9,15.8,5.1,-23.6,5.73,1.77,-16.3,22.0
2016-04-18 00:02:00,3.0,1.87662,0.00029,397.499,0.095,0.0073,0.0015,140.001,45.000,31160.31624,1.87675,397.528,30.186,45.072,44.999,0.00,0.08,-272.76,-272.81,0,511,-925,16.1,4.8,-24.1,15.8,5.0,-23.8,5.73,2.00,-16.3,22.1
2016-04-18 00:03:00,3.0,1.87630,0.00038,397.648,0.036,0.0077,0.0020,139.998,45.000,31160.66443,1.87644,397.682,30.189,45.072,45.000,0.00,0.08,-272.76,-272.80,-1,511,-925,16.1,4.7,-24.2,15.8,4.9,-23.9,5.73,1.76,-16.3,22.1
2016-04-18 00:04:00,3.0,1.87664,0.00050,397.674,0.029,0.0060,0.0021,140.001,45.000,31162.02557,1.87674,397.704,30.189,45.072,45.000,0.00,0.08,-272.75,-272.80,0,511,-925,16.1,4.7,-24.1,15.9,4.9,-23.9,5.73,2.01,-16.3,22.1
2016-04-18 00:05:00,3.0,1.87665,0.00046,397.658,0.042,0.0058,0.0022,140.000,45.001,31162.83706,1.87676,397.685,30.203,45.072,45.000,0.00,0.08,-272.76,-272.82,-1,511,-925,16.2,4.8,-24.1,15.9,5.0,-23.8,5.73,1.74,-16.3,22.1
2016-04-18 00:06:00,3.0,1.87653,0.00048,397.676,0.028,0.0040,0.0023,140.003,45.000,31165.11278,1.87661,397.694,30.212,45.072,45.000,0.00,0.08,-272.76,-272.82,-0,511,-925,16.2,4.8,-23.9,15.9,5.0,-23.7,5.73,2.02,-16.3,22.0
2016-04-18 00:07:00,3.0,1.87664,0.00042,397.688,0.034,0.0028,0.0015,140.002,45.000,31166.86875,1.87670,397.702,30.237,45.073,45.000,0.00,0.09,-272.75,-272.81,-1,511,-925,16.2,4.9,-23.6,15.9,5.1,-23.4,5.73,1.74,-16.3,22.1
2016-04-18 00:08:00,3.0,1.87682,0.00028,397.688,0.032,0.0030,0.0022,139.999,45.000,31165.60024,1.87686,397.703,30.238,45.072,45.000,0.00,0.08,-272.76,-272.81,-1,511,-925,16.2,5.0,-23.4,16.0,5.2,-23.1,5.73,2.03,-16.3,22.1
2016-04-18 00:09:00,3.0,1.87670,0.00049,397.679,0.031,0.0017,0.0020,140.002,45.000,31167.62474,1.87677,397.687,30.245,45.072,45.000,0.00,0.08,-272.76,-272.81,-0,512,-925,16.3,5.0,-23.5,16.0,5.2,-23.1,5.73,1.72,-16.3,22.1
2016-04-18 00:10:00,3.0,1.87676,0.00050,397.680,0.029,0.0019,0.0020,140.003,45.000,31168.82150,1.87677,397.689,30.249,45.072,45.000,0.00,0.08,-272.76,-272.80,-2,512,-925,16.3,4.8,-23.8,16.1,5.1,-23.4,5.73,2.04,-16.3,22.1
2016-04-18 00:11:00,3.0,1.87660,0.00051,397.683,0.018,0.0015,0.0021,139.999,45.000,31170.39556,1.87662,397.690,30.262,45.072,45.000,0.00,0.09,-272.76,-272.80,-0,512,-925,16.3,4.8,-23.9,16.0,5.0,-23.6,5.73,1.72,-16.3,22.1
2016-04-18 00:12:00,3.0,1.87701,0.00034,397.680,0.043,0.0009,0.0016,139.997,45.000,31170.46641,1.87702,397.685,30.258,45.072,44.999,0.00,0.08,-272.76,-272.80,-2,512,-925,16.3,4.8,-24.0,16.1,5.0,-23.7,5.73,2.04,-16.3,22.1
2016-04-18 00:13:00,3.0,1.87680,0.00041,397.681,0.033,0.0005,0.0021,140.001,45.000,31172.35536,1.87682,397.682,30.251,45.072,45.000,0.00,0.09,-272.76,-272.81,-0,512,-925,16.4,4.8,-23.9,16.1,5.0,-23.6,5.73,1.72,-16.3,22.1
2016-04-18 00:14:00,3.0,1.87676,0.00048,397.707,0.026,0.0008,0.0014,140.002,45.000,31175.35988,1.87678,397.711,30.250,45.072,45.000,0.00,0.08,-272.76,-272.81,-2,513,-925,16.4,4.8,-23.9,16.1,5.0,-23.6,5.73,2.04,-16.3,22.1
2016-04-18 00:15:00,3.0,1.87665,0.00059,397.702,0.030,0.0010,0.0014,140.002,45.000,31175.72173,1.87667,397.705,30.248,45.072,45.000,0.00,0.09,-272.76,-272.81,-1,513,-925,16.4,4.8,-23.8,16.2,5.0,-23.5,5.73,1.72,-16.3,22.1
2016-04-18 00:16:00,3.0,1.87697,0.00052,397.681,0.030,0.0004,0.0020,140.003,45.000,31177.82058,1.87697,397.684,30.250,45.072,45.000,0.00,0.08,-272.76,-272.81,-1,513,-925,16.4,4.8,-23.8,16.2,5.0,-23.5,5.73,2.03,-16.3,22.1
2016-04-18 00:17:00,3.0,1.87644,0.00049,397.691,0.031,0.0004,0.0015,140.000,45.000,31178.18314,1.87645,397.694,30.250,45.072,45.000,0.00,0.08,-272.75,-272.81,-2,513,-925,16.5,4.9,-23.6,16.2,5.0,-23.4,5.73,1.72,-16.2,22.2
2016-04-18 00:18:00,3.0,1.87678,0.00044,397.705,0.029,0.0001,0.0021,139.998,45.000,31177.21889,1.87678,397.704,30.249,45.072,44.999,0.00,0.08,-272.76,-272.81,-1,513,-925,16.5,4.9,-23.5,16.3,5.1,-23.2,5.73,2.02,-16.3,22.2
2016-04-18 00:19:00,3.0,1.87684,0.00026,397.725,0.031,0.0000,0.0016,139.999,45.000,31179.03779,1.87684,397.723,30.250,45.072,45.000,0.00,0.08,-272.76,-272.81,-2,513,-925,16.5,5.0,-23.4,16.3,5.1,-23.1,5.73,1.73,-16.3,22.2
2016-04-18 00:20:00,0.0,1.92086,0.01852,406.044,3.539,0.0963,0.0452,139.993,45.000,31114.35287,1.92072,406.317,30.250,45.072,45.000,0.00,0.08,-272.75,-272.81,-2,503,-925,16.6,5.0,-23.3,16.3,5.2,-23.0,5.73,2.04,-16.3,22.2
2016-04-18 00:21:00,0.0,1.92846,0.00037,407.659,0.047,0.1252,0.0018,139.999,45.000,31119.36259,1.93083,408.273,30.250,45.073,45.000,0.00,0.09,-272.75,-272.81,-3,504,-925,16.6,5.0,-23.1,16.4,5.3,-22.8,5.73,1.73,-16.3,22.2
2016-04-18 00:22:00,0.0,1.92840,0.00053,407.675,0.028,0.1252,0.0018,140.000,45.000,31120.55719,1.93080,408.289,30.249,45.073,45.000,0.00,0.08,-272.76,-272.81,-3,505,-925,16.7,5.0,-23.1,16.4,5.2,-22.8,5.73,2.09,-16.2,22.2
2016-04-18 00:23:00,0.0,1.92864,0.00041,407.677,0.044,0.1252,0.0022,140.000,45.000,31124.13700,1.93103,408.293,30.241,45.073,45.001,0.00,0.08,-272.75,-272.82,-2,505,-925,16.7,5.0,-23.2,16.4,5.2,-22.8,5.73,1.82,-16.3,22.3
2016-04-18 00:24:00,0.0,1.92825,0.00047,407.646,0.034,0.1259,0.0010,140.000,45.000,31128.91900,1.93061,408.264,30.237,45.073,45.001,0.00,0.09,-272.76,-272.80,-4,506,-925,16.7,5.0,-23.2,16.4,5.2,-22.9,5.73,1.94,-16.3,22.3
2016-04-18 00:25:00,0.0,1.92831,0.00044,407.659,0.043,0.1276,0.0020,140.001,45.000,31130.38905,1.93077,408.286,30.241,45.073,45.001,0.00,0.09,-272.76,-272.81,-3,506,-925,16.7,5.0,-23.1,16.5,5.2,-22.8,5.73,1.98,-16.2,22.2
2016-04-18 00:26:00,0.0,1.92814,0.00043,407.669,0.023,0.1294,0.0019,140.000,45.000,31132.13662,1.93058,408.305,30.245,45.073,45.001,0.00,0.09,-272.77,-272.81,-3,506,-925,16.7,5.1,-23.0,16.5,5.3,-22.7,5.73,1.78,-16.3,22.2
2016-04-18 00:27:00,0.0,1.92831,0.00045,407.698,0.034,0.1301,0.0015,140.002,45.000,31133.95014,1.93079,408.336,30.247,45.073,45.000,0.00,0.08,-272.76,-272.81,-4,506,-925,16.7,5.1,-22.9,16.5,5.3,-22.6,5.73,2.10,-16.3,22.3
2016-04-18 00:28:00,0.0,1.92804,0.00026,407.730,0.030,0.1305,0.0016,139.999,45.000,31134.61643,1.93053,408.371,30.248,45.072,45.000,0.00,0.09,-272.75,-272.81,-2,507,-925,16.7,5.1,-22.9,16.5,5.3,-22.6,5.73,1.72,-16.3,22.2
2016-04-18 00:29:00,0.0,1.92828,0.00042,407.735,0.039,0.1299,0.0015,139.999,45.000,31135.04257,1.93073,408.371,30.250,45.072,45.000,0.00,0.08,-272.76,-272.81,-3,507,-925,16.7,5.1,-22.9,16.5,5.3,-22.6,5.73,2.08,-16.2,22.2
2016-04-18 00:30:00,0.0,1.92836,0.00049,407.706,0.068,0.1298,0.0013,140.002,45.000,31136.47202,1.93083,408.344,30.249,45.072,45.000,0.00,0.08,-272.75,-272.81,-3,507,-925,16.7,5.1,-23.0,16.5,5.3,-22.6,5.73,1.81,-16.2,22.2
2016-04-18 00:31:00,0.0,1.92859,0.00030,407.755,0.049,0.1310,0.0026,139.999,45.000,31134.97966,1.93107,408.399,30.248,45.072,45.000,0.00,0.09,-272.76,-272.80,-2,507,-925,16.7,5.1,-22.9,16.5,5.3,-22.6,5.73,1.95,-16.2,22.3
2016-04-18 00:32:00,0.0,1.92855,0.00046,407.639,0.048,0.1383,0.0021,140.001,45.000,31135.96677,1.93119,408.322,30.247,45.072,45.000,0.00,0.08,-272.76,-272.81,-4,507,-925,16.7,5.4,-22.3,16.4,5.5,-22.2,5.73,1.96,-16.2,22.3
2016-04-18 00:33:00,0.0,1.92832,0.00046,407.610,0.049,0.1373,0.0023,139.999,45.000,31135.34389,1.93096,408.284,30.246,45.072,45.000,0.00,0.09,-272.76,-272.81,-3,507,-925,16.7,5.4,-22.3,16.5,5.6,-21.9,5.73,1.79,-16.2,22.3
2016-04-18 00:34:00,0.0,1.92852,0.00037,407.554,0.086,0.1340,0.0020,140.002,45.000,31137.32188,1.93104,408.210,30.227,45.072,45.000,0.00,0.08,-272.75,-272.81,-3,507,-925,16.7,5.3,-22.6,16.4,5.5,-22.2,5.73,2.07,-16.2,22.3
2016-04-18 00:35:00,0.0,1.92857,0.00048,407.585,0.114,0.1397,0.0023,139.999,45.000,31135.99754,1.93122,408.276,30.233,45.072,45.000,0.00,0.09,-272.75,-272.82,-4,507,-925,16.7,5.4,-22.2,16.4,5.6,-22.0,5.73,1.72,-16.2,22.3
2016-04-18 00:36:00,0.0,1.92822,0.00041,407.468,0.042,0.1420,0.0016,140.001,45.000,31139.14583,1.93093,408.165,30.218,45.073,45.000,0.00,0.08,-272.76,-272.82,-2,507,-925,16.7,5.6,-21.9,16.4,5.8,-21.7,5.73,2.10,-16.2,22.3
2016-04-18 00:37:00,0.0,1.92827,0.00046,407.443,0.049,0.1463,0.0026,139.999,45.000,31138.07193,1.93104,408.162,30.241,45.073,45.000,0.00,0.09,-272.75,-272.81,-3,507,-925,16.7,5.7,-21.6,16.4,5.9,-21.4,5.73,1.76,-16.2,22.3
2016-04-18 00:38:00,0.0,1.92824,0.00062,407.238,0.086,0.1423,0.0034,139.997,45.000,31138.56089,1.93097,407.943,30.249,45.073,45.000,0.00,0.09,-272.76,-272.80,-3,508,-925,16.7,5.6,-21.8,16.4,5.9,-21.4,5.73,2.01,-16.2,22.3
2016-04-18 00:39:00,0.0,1.92789,0.00044,407.108,0.036,0.1334,0.0019,140.003,45.000,31142.97362,1.93044,407.765,30.250,45.073,45.001,0.00,0.08,-272.76,-272.81,-2,507,-925,16.7,5.3,-22.5,16.4,5.6,-22.0,5.73,1.89,-16.2,22.3
2016-04-18 00:40:00,0.0,1.92814,0.00047,407.062,0.024,0.1268,0.0023,139.998,45.000,31142.89395,1.93054,407.686,30.250,45.073,45.000,0.00,0.08,-272.77,-272.81,-4,508,-925,16.7,5.0,-23.2,16.4,5.3,-22.6,5.73,1.86,-16.2,22.3
2016-04-18 00:41:00,0.0,1.92823,0.00041,407.040,0.036,0.1221,0.0022,140.000,45.000,31144.93299,1.93054,407.638,30.252,45.073,45.001,0.00,0.09,-272.75,-272.81,-2,508,-925,16.7,4.8,-23.6,16.4,5.1,-23.2,5.73,2.03,-16.2,22.3
2016-04-18 00:42:00,0.0,1.92875,0.00049,407.062,0.034,0.1206,0.0021,139.998,45.000,31143.77782,1.93105,407.654,30.287,45.073,45.001,0.00,0.09,-272.76,-272.81,-2,508,-925,16.7,4.7,-23.8,16.4,5.0,-23.4,5.73,1.75,-16.2,22.4
2016-04-18 00:43:00,0.0,1.92872,0.00064,407.081,0.033,0.1196,0.0017,140.001,45.000,31146.61092,1.93097,407.666,30.309,45.072,45.000,0.00,0.08,-272.76,-272.82,-3,508,-925,16.7,4.7,-23.8,16.4,4.9,-23.5,5.73,2.11,-16.2,22.4
2016-04-18 00:44:00,0.0,1.92852,0.00049,407.078,0.042,0.1188,0.0014,140.002,45.000,31147.61341,1.93077,407.661,30.317,45.072,45.000,0.00,0.08,-272.75,-272.81,-2,508,-925,16.7,4.7,-23.9,16.4,4.9,-23.5,5.73,1.72,-16.2,22.4
2016-04-18 00:45:00,0.0,1.92843,0.00048,407.106,0.038,0.1173,0.0019,140.002,45.000,31146.49603,1.93072,407.681,30.319,45.072,45.000,0.00,0.08,-272.76,-272.80,-3,508,-925,16.7,4.6,-24.0,16.4,4.9,-23.6,5.73,2.08,-16.1,22.4
2016-04-18 00:46:00,0.0,1.92820,0.00042,407.105,0.024,0.1175,0.0015,139.998,45.000,31146.41853,1.93045,407.682,30.322,45.072,45.000,0.00,0.08,-272.76,-272.82,-3,508,-925,16.7,4.6,-24.0,16.4,4.8,-23.7,5.73,1.80,-16.2,22.4
2016-04-18 00:47:00,0.0,1.92848,0.00042,407.116,0.019,0.1167,0.0027,139.997,45.000,31144.27992,1.93066,407.689,30.313,45.072,44.999,0.00,0.08,-272.76,-272.81,-2,508,-925,16.7,4.6,-24.1,16.4,4.8,-23.8,5.73,1.97,-16.2,22.4
2016-04-18 00:48:00,0.0,1.92841,0.00043,407.120,0.032,0.1170,0.0016,140.000,45.000,31147.07185,1.93063,407.694,30.322,45.072,45.000,0.00,0.09,-272.75,-272.81,-3,508,-925,16.7,4.6,-24.1,16.4,4.8,-23.8,5.73,1.93,-16.1,22.4
2016-04-18 00:49:00,0.0,1.92888,0.00047,407.107,0.025,0.1159,0.0020,139.998,45.000,31145.07851,1.93109,407.675,30.322,45.072,45.000,0.00,0.09,-272.76,-272.81,-2,508,-925,16.7,4.6,-24.2,16.4,4.8,-23.8,5.73,1.84,-16.1,22.5
2016-04-18 00:50:00,0.0,1.92877,0.00045,407.117,0.028,0.1158,0.0017,140.000,45.000,31145.48973,1.93096,407.684,30.313,45.072,45.000,0.00,0.08,-272.76,-272.81,-3,508,-925,16.7,4.6,-24.2,16.4,4.8,-23.9,5.73,2.05,-16.1,22.4
2016-04-18 00:51:00,0.0,1.92886,0.00045,407.132,0.021,0.1153,0.0018,139.998,45.000,31144.36342,1.93104,407.698,30.313,45.072,45.000,0.00,0.09,-272.75,-272.80,-3,508,-925,16.6,4.6,-24.2,16.4,4.8,-23.9,5.73,1.74,-16.1,22.4
2016-04-18 00:52:00,0.0,1.92887,0.00047,407.128,0.027,0.1148,0.0015,140.000,45.000,31147.07547,1.93109,407.691,30.315,45.072,45.000,0.00,0.08,-272.76,-272.81,-2,508,-925,16.6,4.5,-24.3,16.4,4.8,-23.9,5.73,2.11,-16.1,22.4
2016-04-18 00:53:00,0.0,1.92881,0.00038,407.141,0.032,0.1155,0.0014,140.001,45.000,31145.82895,1.93102,407.707,30.309,45.073,45.000,0.00,0.09,-272.76,-272.81,-3,508,-925,16.6,4.6,-24.2,16.4,4.8,-23.9,5.73,1.73,-16.1,22.4
2016-04-18 00:54:00,0.0,1.92893,0.00047,407.152,0.029,0.1158,0.0015,140.001,45.000,31145.37811,1.93111,407.720,30.309,45.073,45.000,0.00,0.08,-272.76,-272.80,-2,508,-925,16.6,4.6,-24.2,16.4,4.8,-23.9,5.73,2.07,-16.1,22.4
2016-04-18 00:55:00,0.0,1.92869,0.00052,407.170,0.043,0.1155,0.0015,140.001,45.000,31145.75508,1.93089,407.736,30.312,45.073,45.001,0.00,0.09,-272.75,-272.81,-2,508,-925,16.6,4.6,-24.2,16.4,4.8,-23.9,5.73,1.80,-16.1,22.4
2016-04-18 00:56:00,0.0,1.92903,0.00045,407.162,0.035,0.1160,0.0020,139.998,45.000,31145.12716,1.93122,407.732,30.323,45.073,45.001,0.00,0.08,-272.76,-272.81,-3,508,-925,16.6,4.6,-24.2,16.4,4.8,-23.9,5.73,1.97,-16.1,22.4
2016-04-18 00:57:00,0.0,1.92888,0.00040,407.271,0.111,0.1154,0.0018,140.002,45.000,31144.98545,1.93108,407.833,30.368,45.073,45.001,0.00,0.08,-272.75,-272.81,-2,508,-925,16.7,4.6,-24.2,16.4,4.8,-23.9,5.73,1.93,-16.1,22.5
2016-04-18 00:58:00,0.0,1.92863,0.00051,407.372,0.035,0.1201,0.0024,140.001,45.000,31146.16411,1.93094,407.960,30.386,45.073,45.000,0.00,0.08,-272.75,-272.80,-3,508,-925,16.6,4.7,-23.9,16.4,4.8,-23.7,5.73,1.84,-16.1,22.5
2016-04-18 00:59:00,0.0,1.92826,0.00052,407.410,0.042,0.1244,0.0021,140.002,45.000,31149.21711,1.93057,408.020,30.427,45.072,45.000,0.00,0.08,-272.76,-272.81,-3,508,-925,16.7,4.8,-23.5,16.4,5.0,-23.4,5.73,2.05,-16.1,22.5
2016-04-18 01:00:00,0.0,1.92804,0.00039,407.456,0.037,0.1259,0.0018,140.001,45.000,31147.97210,1.93046,408.074,30.451,45.072,45.000,0.00,0.08,-272.76,-272.82,-2,507,-925,16.6,4.9,-23.4,16.4,5.1,-23.2,5.73,1.74,-16.1,22.5
2016-04-18 01:01:00,0.0,1.92846,0.00040,407.474,0.039,0.1266,0.0023,140.001,45.000,31146.55205,1.93086,408.095,30.450,45.072,44.999,0.00,0.08,-272.76,-272.81,-4,508,-925,16.6,5.0,-23.3,16.4,5.1,-23.0,5.73,2.10,-16.1,22.5
2016-04-18 01:02:00,0.0,1.92841,0.00044,407.504,0.034,0.1254,0.0017,139.998,45.000,31144.67292,1.93080,408.120,30.438,45.072,44.999,0.00,0.09,-272.75,-272.81,-2,508,-925,16.6,4.9,-23.3,16.4,5.1,-23.0,5.73,1.73,-16.1,22.4
2016-04-18 01:03:00,0.0,1.92870,0.00048,407.507,0.029,0.1240,0.0020,140.000,45.000,31145.43588,1.93104,408.115,30.420,45.072,44.999,0.00,0.08,-272.76,-272.82,-3,507,-925,16.6,4.9,-23.5,16.4,5.1,-23.2,5.73,2.08,-16.1,22.5
2016-04-18 01:04:00,0.0,1.92930,0.00049,407.539,0.027,0.1236,0.0011,139.998,45.000,31143.96706,1.93165,408.146,30.380,45.072,45.000,0.00,0.08,-272.75,-272.82,-3,508,-925,16.6,4.8,-23.6,16.4,5.0,-23.3,5.73,1.79,-16.1,22.5
2016-04-18 01:05:00,0.0,1.92927,0.00047,407.510,0.036,0.1229,0.0019,139.999,45.000,31146.25016,1.93159,408.115,30.375,45.072,45.000,0.00,0.09,-272.76,-272.80,-2,507,-925,16.6,4.8,-23.6,16.4,5.0,-23.3,5.73,1.98,-16.1,22.5
2016-04-18 01:06:00,0.0,1.92932,0.00037,407.483,0.025,0.1231,0.0019,139.998,45.000,31145.09882,1.93167,408.088,30.375,45.072,45.000,0.00,0.08,-272.76,-272.82,-4,507,-925,16.6,4.8,-23.6,16.4,5.0,-23.3,5.73,1.91,-16.1,22.5
2016-04-18 01:07:00,0.0,1.92916,0.00036,407.472,0.042,0.1229,0.0013,140.001,45.000,31145.42036,1.93149,408.077,30.374,45.073,45.000,0.00,0.09,-272.76,-272.81,-2,508,-925,16.6,4.8,-23.6,16.4,5.0,-23.3,5.73,1.86,-16.1,22.5
2016-04-18 01:08:00,0.0,1.92943,0.00058,407.464,0.031,0.1235,0.0018,139.999,45.000,31144.26265,1.93178,408.069,30.375,45.072,45.000,0.00,0.08,-272.76,-272.81,-3,507,-925,16.6,4.9,-23.5,16.4,5.1,-23.3,5.73,2.03,-16.1,22.5
2016-04-18 01:09:00,0.0,1.92921,0.00054,407.479,0.037,0.1261,0.0021,139.996,45.000,31142.12965,1.93161,408.099,30.375,45.072,45.000,0.00,0.09,-272.75,-272.81,-3,508,-925,16.6,4.9,-23.4,16.4,5.1,-23.2,5.73,1.76,-16.1,22.5
2016-04-18 01:10:00,0.0,1.92915,0.00048,407.436,0.043,0.1256,0.0018,139.998,45.000,31142.88160,1.93154,408.053,30.375,45.072,45.000,0.00,0.08,-272.76,-272.81,-2,507,-925,16.6,4.9,-23.4,16.4,5.1,-23.1,5.73,2.10,-16.1,22.5
2016-04-18 01:11:00,0.0,1.92924,0.00046,407.401,0.033,0.1266,0.0016,139.998,45.000,31142.43822,1.93162,408.022,30.375,45.072,45.000,0.00,0.09,-272.75,-272.80,-4,507,-925,16.6,5.0,-23.3,16.3,5.2,-23.0,5.73,1.72,-16.0,22.5
2016-04-18 01:12:00,0.0,1.92960,0.00050,407.416,0.030,0.1306,0.0019,140.000,45.000,31143.60829,1.93212,408.057,30.376,45.073,45.000,0.00,0.08,-272.76,-272.80,-2,508,-925,16.6,5.1,-23.0,16.3,5.2,-22.8,5.73,2.10,-16.0,22.5
2016-04-18 01:13:00,0.0,1.92962,0.00038,407.384,0.030,0.1360,0.0020,139.997,45.000,31144.01257,1.93218,408.052,30.375,45.073,45.000,0.00,0.08,-272.76,-272.81,-3,507,-925,16.6,5.3,-22.5,16.4,5.5,-22.4,5.73,1.76,-16.0,22.4
2016-04-18 01:14:00,0.0,1.92984,0.00048,407.343,0.035,0.1434,0.0020,140.000,45.000,31146.11564,1.93257,408.048,30.375,45.073,45.000,0.00,0.08,-272.76,-272.81,-4,508,-925,16.6,5.6,-22.0,16.4,5.7,-21.9,5.73,2.04,-16.0,22.5
2016-04-18 01:15:00,0.0,1.92929,0.00057,407.280,0.045,0.1484,0.0016,139.997,45.000,31146.29948,1.93212,408.007,30.376,45.073,45.001,0.00,0.09,-272.75,-272.81,-2,507,-925,16.6,5.8,-21.5,16.4,6.0,-21.4,5.73,1.85,-16.0,22.5
2016-04-18 01:16:00,0.0,1.92900,0.00043,407.316,0.046,0.1494,0.0018,139.999,45.000,31148.90724,1.93187,408.052,30.398,45.073,45.000,0.00,0.08,-272.76,-272.82,-4,507,-925,16.6,5.9,-21.4,16.4,6.1,-21.1,5.73,1.93,-16.0,22.5
2016-04-18 01:17:00,0.0,1.92946,0.00058,407.322,0.026,0.1489,0.0019,139.999,45.000,31147.76928,1.93225,408.052,30.427,45.073,45.000,0.00,0.08,-272.76,-272.82,-3,508,-925,16.7,5.8,-21.5,16.4,6.1,-21.2,5.73,1.97,-16.0,22.5
2016-04-18 01:18:00,0.0,1.92949,0.00068,407.262,0.049,0.1455,0.0015,139.999,45.000,31147.34449,1.93232,407.978,30.442,45.072,45.000,0.00,0.09,-272.76,-272.81,-2,507,-925,16.6,5.7,-21.7,16.4,6.0,-21.3,5.73,1.81,-16.0,22.5
2016-04-18 01:19:00,0.0,1.92890,0.00060,407.235,0.033,0.1488,0.0027,139.999,45.000,31149.47262,1.93171,407.966,30.438,45.072,45.000,0.00,0.08,-272.76,-272.81,-4,508,-925,16.6,5.8,-21.5,16.4,6.0,-21.2,5.73,2.07,-16.0,22.5
2016-04-18 01:20:00,0.0,1.92948,0.00047,407.235,0.027,0.1548,0.0026,140.000,45.000,31148.06929,1.93241,407.993,30.439,45.072,45.000,0.00,0.09,-272.76,-272.81,-2,507,-925,16.6,6.0,-21.1,16.4,6.2,-20.9,5.73,1.73,-16.0,22.5
2016-04-18 01:21:00,0.0,1.92925,0.00061,407.201,0.058,0.1542,0.0029,140.000,45.000,31147.12387,1.93220,407.963,30.443,45.072,44.999,0.00,0.08,-272.76,-272.81,-3,507,-925,16.6,6.0,-21.1,16.3,6.3,-20.8,5.73,2.11,-16.1,22.5
2016-04-18 01:22:00,0.0,1.92876,0.00050,407.059,0.032,0.1399,0.0050,139.999,45.000,31146.42345,1.93145,407.747,30.445,45.072,45.000,0.00,0.09,-272.76,-272.81,-3,508,-925,16.6,5.6,-22.0,16.3,6.0,-21.4,5.73,1.73,-16.0,22.5
2016-04-18 01:23:00,0.0,1.92897,0.00038,407.077,0.024,0.1300,0.0022,139.995,45.000,31145.37978,1.93145,407.716,30.438,45.072,45.000,0.00,0.08,-272.76,-272.81,-2,507,-925,16.6,5.1,-23.0,16.3,5.5,-22.3,5.73,2.08,-16.0,22.5
2016-04-18 01:24:00,0.0,1.92904,0.00069,407.112,0.038,0.1246,0.0018,140.000,45.000,31144.85648,1.93136,407.722,30.436,45.072,45.000,0.00,0.08,-272.75,-272.81,-4,507,-925,16.6,4.9,-23.5,16.3,5.2,-23.0,5.73,1.80,-16.0,22.5
2016-04-18 01:25:00,0.0,1.92921,0.00031,407.135,0.033,0.1227,0.0016,140.001,45.000,31146.15217,1.93156,407.738,30.434,45.072,45.000,0.00,0.08,-272.75,-272.80,-2,507,-925,16.6,4.8,-23.7,16.3,5.1,-23.3,5.73,1.97,-16.0,22.5
2016-04-18 01:26:00,0.0,1.92951,0.00027,407.115,0.026,0.1202,0.0019,139.999,45.000,31145.37785,1.93178,407.704,30.432,45.072,45.000,0.00,0.08,-272.75,-272.81,-3,507,-925,16.6,4.7,-23.9,16.3,5.0,-23.5,5.73,1.92,-16.0,22.5
2016-04-18 01:27:00,0.0,1.92924,0.00057,407.135,0.025,0.1206,0.0017,139.999,45.000,31145.15954,1.93156,407.726,30.421,45.072,45.000,0.00,0.08,-272.76,-272.81,-3,508,-925,16.6,4.7,-23.9,16.3,4.9,-23.6,5.73,1.85,-16.0,22.5
2016-04-18 01:28:00,0.0,1.92948,0.00055,407.133,0.038,0.1198,0.0013,140.001,45.000,31144.54563,1.93173,407.721,30.438,45.072,45.000,0.00,0.08,-272.75,-272.81,-2,507,-925,16.6,4.7,-23.9,16.3,4.9,-23.6,5.73,2.05,-16.0,22.5
2016-04-18 01:29:00,0.0,1.92936,0.00039,407.151,0.035,0.1213,0.0016,140.002,45.000,31145.74466,1.93167,407.746,30.439,45.072,45.000,0.00,0.09,-272.76,-272.81,-3,507,-925,16.6,4.7,-23.9,16.3,4.9,-23.5,5.73,1.75,-16.0,22.5
2016-04-18 01:30:00,0.0,1.92924,0.00037,407.138,0.037,0.1202,0.0016,140.002,45.000,31147.67918,1.93155,407.728,30.443,45.072,45.000,0.00,0.08,-272.77,-272.82,-2,508,-925,16.6,4.7,-23.9,16.3,4.9,-23.6,5.73,2.11,-16.0,22.5
2016-04-18 01:31:00,0.0,1.92927,0.00042,407.148,0.037,0.1200,0.0014,139.998,45.000,31146.68012,1.93155,407.736,30.468,45.072,45.000,0.00,0.09,-272.75,-272.81,-2,507,-925,16.6,4.7,-23.9,16.4,4.9,-23.5,5.73,1.73,-16.0,22.5
2016-04-18 01:32:00,0.0,1.92956,0.00042,407.181,0.041,0.1187,0.0016,139.997,45.000,31146.46178,1.93179,407.765,30.485,45.073,45.000,0.00,0.08,-272.76,-272.80,-3,508,-925,16.6,4.7,-23.9,16.4,4.9,-23.6,5.73,2.10,-16.0,22.5
2016-04-18 01:33:00,0.0,1.92960,0.00035,407.176,0.033,0.1204,0.0018,139.998,45.000,31147.32787,1.93189,407.764,30.494,45.073,45.000,0.00,0.08,-272.76,-272.81,-2,507,-925,16.7,4.7,-23.9,16.4,4.9,-23.6,5.73,1.78,-16.0,22.5
2016-04-18 01:34:00,0.0,1.92982,0.00047,407.169,0.036,0.1198,0.0021,140.000,45.000,31148.38640,1.93209,407.758,30.501,45.072,45.000,0.00,0.08,-272.77,-272.81,-3,507,-925,16.6,4.7,-23.9,16.4,4.9,-23.6,5.73,2.00,-16.0,22.5
2016-04-18 01:35:00,0.0,1.92986,0.00062,407.173,0.037,0.1200,0.0019,140.001,45.000,31147.77271,1.93216,407.761,30.510,45.072,45.000,0.00,0.08,-272.76,-272.81,-2,508,-925,16.7,4.7,-23.9,16.4,4.9,-23.6,5.73,1.90,-16.0,22.5
2016-04-18 01:36:00,0.0,1.92968,0.00037,407.183,0.029,0.1183,0.0019,139.999,45.000,31147.47486,1.93192,407.764,30.544,45.072,45.000,0.00,0.09,-272.76,-272.81,-2,507,-925,16.6,4.7,-24.0,16.3,4.9,-23.6,5.73,1.88,-16.0,22.5
2016-04-18 01:37:00,0.0,1.93012,0.00045,407.206,0.031,0.1187,0.0019,140.000,45.000,31147.18699,1.93238,407.789,30.559,45.072,45.000,0.00,0.08,-272.76,-272.82,-3,508,-925,16.6,4.6,-24.0,16.4,4.9,-23.7,5.73,2.02,-16.0,22.5
2016-04-18 01:38:00,0.0,1.93012,0.00043,407.196,0.040,0.1206,0.0018,140.000,45.000,31146.91122,1.93240,407.787,30.563,45.072,45.000,0.00,0.09,-272.75,-272.81,-2,507,-925,16.6,4.7,-23.9,16.3,4.9,-23.6,5.73,1.78,-16.0,22.5
2016-04-18 01:39:00,0.0,1.92969,0.00049,407.187,0.042,0.1209,0.0022,139.999,45.000,31147.62005,1.93200,407.780,30.566,45.072,45.000,0.00,0.08,-272.75,-272.81,-3,507,-925,16.6,4.7,-23.9,16.3,4.9,-23.5,5.73,2.10,-16.0,22.6
2016-04-18 01:40:00,0.0,1.92970,0.00056,407.203,0.026,0.1203,0.0014,140.001,45.000,31148.37419,1.93202,407.794,30.582,45.072,44.999,0.00,0.08,-272.75,-272.82,-2,508,-925,16.6,4.7,-23.9,16.3,4.9,-23.6,5.73,1.73,-16.0,22.6
2016-04-18 01:41:00,0.0,1.92959,0.00037,407.187,0.040,0.1203,0.0019,139.999,45.000,31149.67424,1.93188,407.779,30.585,45.072,45.000,0.00,0.08,-272.76,-272.81,-2,507,-925,16.6,4.7,-23.8,16.3,4.9,-23.6,5.73,2.11,-16.0,22.5
2016-04-18 01:42:00,0.0,1.92939,0.00046,407.169,0.029,0.1216,0.0017,139.995,45.000,31148.41437,1.93171,407.765,30.582,45.072,45.000,0.00,0.09,-272.75,-272.81,-3,507,-925,16.6,4.7,-23.8,16.3,5.0,-23.5,5.73,1.76,-15.9,22.6
2016-04-18 01:43:00,0.0,1.92957,0.00042,407.198,0.032,0.1219,0.0014,140.000,45.000,31146.74933,1.93190,407.797,30.565,45.072,45.000,0.00,0.08,-272.77,-272.81,-2,507,-925,16.6,4.8,-23.7,16.3,5.0,-23.5,5.73,2.05,-16.0,22.5
2016-04-18 01:44:00,0.0,1.92945,0.00031,407.177,0.041,0.1223,0.0022,139.998,45.000,31146.20012,1.93176,407.778,30.564,45.072,45.000,0.00,0.08,-272.76,-272.82,-3,507,-925,16.6,4.8,-23.7,16.3,5.0,-23.5,5.73,1.85,-16.0,22.5
2016-04-18 01:45:00,0.0,1.92930,0.00049,407.240,0.124,0.1225,0.0014,140.002,45.000,31147.38238,1.93162,407.837,30.563,45.072,45.000,0.00,0.09,-272.75,-272.80,-3,508,-925,16.6,4.8,-23.7,16.3,5.0,-23.4,5.73,1.93,-16.0,22.5